KK4PWJ-13 Weather Reports


time (UTC)temp
C
wind
direction
speed
KPH
gust
KPH
rain 1hr
cm
rain 24hr
cm
rain mn
cm
humidity
%
barometer
mb
20260503005821 9 156 0.0 0.0 0.00 0.00 0.00 92 1011.4
20260503005319 9 156 0.0 0.0 0.00 0.00 0.00 92 1011.3
20260503004815 9 156 0.0 0.0 0.00 0.00 0.00 92 1011.4
20260503004313 10 156 0.0 0.0 0.00 0.00 0.00 91 1011.2
20260503003810 10 156 0.0 0.0 0.00 0.00 0.00 91 1011.4
20260503003307 10 156 0.0 0.0 0.00 0.00 0.00 90 1011.3
20260503002804 10 156 0.0 0.0 0.00 0.00 0.00 89 1011.4
20260503002300 10 156 0.0 0.0 0.00 0.00 0.00 88 1011.1
20260503001756 10 156 0.0 0.0 0.00 0.00 0.00 87 1011.3
20260503001253 11 156 0.0 0.0 0.00 0.00 0.00 86 1011.1
20260503000751 11 156 0.0 0.0 0.00 0.00 0.00 85 1011.0
20260503000248 11 156 0.0 0.0 0.00 0.00 0.00 83 1010.8
20260502235745 11 156 0.0 0.0 0.00 0.00 0.00 81 1010.6
20260502235243 11 156 0.0 0.0 0.00 0.00 0.00 79 1010.6
20260502234738 12 156 0.0 0.0 0.00 0.00 0.00 78 1010.6
20260502234236 12 157 0.0 0.0 0.00 0.00 0.00 78 1010.4
20260502233732 12 157 0.0 0.0 0.00 0.00 0.00 78 1010.2
20260502233229 12 158 0.0 0.0 0.00 0.00 0.00 76 1010.1
20260502232725 12 7 0.0 0.0 0.00 0.00 0.00 74 1010.1
20260502232222 12 5 0.0 0.0 0.00 0.00 0.00 74 1010.2
20260502231719 12 192 0.0 0.0 0.00 0.00 0.00 77 1009.9
20260502231217 12 192 0.0 0.0 0.00 0.00 0.00 76 1009.8
20260502230715 13 192 0.0 0.0 0.00 0.00 0.00 74 1010.1
20260502230213 13 192 0.0 0.0 0.00 0.00 0.00 72 1010.2
20260502225708 13 192 0.0 0.0 0.00 0.00 0.00 74 1010.1
20260502225206 13 192 0.0 0.0 0.00 0.00 0.00 73 1009.8
20260502224702 13 192 0.0 0.0 0.00 0.00 0.00 72 1010.0
20260502224159 13 192 0.0 0.0 0.00 0.00 0.00 70 1010.1
20260502223656 13 192 0.0 0.0 0.00 0.00 0.00 67 1010.0
20260502223155 13 192 0.0 0.0 0.00 0.00 0.00 65 1009.8
20260502222652 13 192 0.0 0.0 0.00 0.00 0.00 65 1009.8
20260502222148 13 192 0.0 0.0 0.00 0.00 0.00 65 1010.1
20260502221644 13 192 0.0 1.6 0.00 0.00 0.00 60 1009.9
20260502221141 13 192 0.0 0.0 0.00 0.00 0.00 62 1009.9
20260502220637 13 192 0.0 0.0 0.00 0.00 0.00 65 1009.8
20260502220134 13 192 0.0 0.0 0.00 0.00 0.00 65 1009.7
20260502215631 13 192 0.0 0.0 0.00 0.00 0.00 63 1009.9
20260502215128 13 192 0.0 0.0 0.00 0.00 0.00 62 1009.8
20260502214625 13 192 0.0 1.6 0.00 0.00 0.00 63 1009.7
20260502214122 13 192 0.0 0.0 0.00 0.00 0.00 61 1009.5
20260502213619 13 192 0.0 0.0 0.00 0.00 0.00 61 1009.7
20260502213116 13 192 0.0 0.0 0.00 0.00 0.00 62 1009.5
20260502212615 13 192 0.0 0.0 0.00 0.00 0.00 61 1009.9
20260502212113 13 192 0.0 0.0 0.00 0.00 0.00 60 1009.7
20260502211608 13 192 0.0 0.0 0.00 0.00 0.00 60 1009.9
20260502211106 13 192 0.0 0.0 0.00 0.00 0.00 64 1009.8
20260502210603 13 192 0.0 0.0 0.00 0.00 0.00 60 1009.8
20260502210100 13 192 0.0 0.0 0.00 0.00 0.00 63 1009.8
20260502205556 13 192 0.0 0.0 0.00 0.00 0.00 64 1010.1
20260502205054 13 192 0.0 0.0 0.00 0.00 0.00 62 1009.9
20260502204550 13 192 0.0 0.0 0.00 0.00 0.00 64 1010.0
20260502204048 13 192 0.0 1.6 0.00 0.00 0.00 61 1009.9
20260502203545 13 192 0.0 1.6 0.00 0.00 0.00 60 1009.9
20260502203042 13 192 0.0 1.6 0.00 0.00 0.00 62 1010.0
20260502202538 13 192 0.0 0.0 0.00 0.00 0.00 62 1010.0
20260502202036 14 191 0.0 0.0 0.00 0.00 0.00 61 1010.0
20260502201532 14 191 0.0 0.0 0.00 0.00 0.00 64 1009.9
20260502201029 14 191 0.0 1.6 0.00 0.00 0.00 64 1009.9
20260502200524 14 191 0.0 0.0 0.00 0.00 0.00 65 1010.0
20260502200022 14 242 0.0 0.0 0.00 0.00 0.00 62 1010.0
20260502195520 14 240 0.0 0.0 0.00 0.00 0.00 64 1010.0
20260502195015 14 240 0.0 0.0 0.00 0.00 0.00 65 1010.1
20260502194513 15 240 0.0 1.6 0.00 0.00 0.00 62 1009.9
20260502194008 14 249 0.0 0.0 0.00 0.00 0.00 62 1010.1
20260502193506 14 285 0.0 1.6 0.00 0.00 0.00 62 1010.1
20260502193002 15 328 1.6 3.2 0.00 0.00 0.00 63 1010.2
20260502192458 15 55 0.0 1.6 0.00 0.00 0.00 61 1010.2
20260502191955 15 15 0.0 1.6 0.00 0.00 0.00 61 1010.2
20260502191453 15 307 0.0 0.0 0.00 0.00 0.00 62 1010.2
20260502190951 15 137 0.0 0.0 0.00 0.00 0.00 61 1010.1
20260502190448 15 296 0.0 0.0 0.00 0.00 0.00 57 1010.2
20260502185944 15 293 1.6 3.2 0.00 0.00 0.00 60 1010.2
20260502185440 15 150 1.6 1.6 0.00 0.00 0.00 60 1010.2
20260502184937 15 102 0.0 0.0 0.00 0.00 0.00 59 1010.2
20260502184432 15 32 0.0 1.6 0.00 0.00 0.00 61 1010.1
20260502183928 15 64 1.6 1.6 0.00 0.00 0.00 64 1010.3
20260502183425 15 15 0.0 1.6 0.00 0.00 0.00 66 1010.3
20260502182920 15 80 0.0 1.6 0.00 0.00 0.00 63 1010.5
20260502182416 15 115 0.0 1.6 0.00 0.00 0.00 65 1010.4
20260502181912 15 116 0.0 1.6 0.00 0.00 0.00 65 1010.5
20260502181411 14 116 0.0 1.6 0.00 0.00 0.00 68 1010.5
20260502180909 14 117 0.0 0.0 0.00 0.00 0.00 69 1010.6
20260502180406 14 115 0.0 0.0 0.00 0.00 0.00 70 1010.8
20260502170324 14 259 0.0 1.6 0.00 0.00 0.00 68 1010.7
20260502164312 14 66 0.0 1.6 0.00 0.00 0.00 65 1011.2
20260502163808 14 66 0.0 1.6 0.00 0.00 0.00 68 1011.3
20260502163304 14 71 0.0 3.2 0.00 0.00 0.00 68 1011.3
20260502162802 13 72 0.0 1.6 0.00 0.00 0.00 66 1011.3
20260502162258 13 123 1.6 1.6 0.00 0.00 0.00 71 1011.6
20260502161755 13 156 0.0 0.0 0.00 0.00 0.00 71 1011.9
20260502161251 13 156 0.0 1.6 0.00 0.00 0.00 70 1012.1
20260502160750 13 156 0.0 0.0 0.00 0.00 0.00 73 1012.4
20260502160249 13 156 0.0 1.6 0.00 0.00 0.00 72 1012.3
20260502152218 13 247 0.0 1.6 0.00 0.00 0.00 75 1011.8
20260502151715 13 239 0.0 0.0 0.00 0.00 0.00 75 1011.4
20260502151212 13 239 0.0 0.0 0.00 0.00 0.00 73 1011.6
20260502150709 13 239 0.0 0.0 0.00 0.00 0.00 75 1011.8
20260502150206 12 244 0.0 0.0 0.00 0.00 0.00 71 1011.7
20260502140130 12 86 0.0 0.0 0.00 0.00 0.00 79 1011.8
20260502130554 11 74 0.0 0.0 0.00 0.00 0.00 84 1011.1
20260502123538 11 73 0.0 0.0 0.00 0.00 0.00 89 1011.1
20260502123034 11 73 0.0 0.0 0.00 0.00 0.00 88 1011.5
20260502122531 11 72 0.0 0.0 0.00 0.00 0.00 88 1011.3
20260502122028 11 72 0.0 0.0 0.00 0.00 0.00 89 1011.4
20260502121525 11 132 0.0 0.0 0.00 0.00 0.00 88 1011.2
20260502121023 11 176 0.0 0.0 0.00 0.00 0.00 90 1010.9
20260502120519 11 176 0.0 0.0 0.00 0.00 0.00 90 1010.9
20260502115514 10 176 0.0 0.0 0.00 0.00 0.00 91 1011.0
20260502115009 10 176 0.0 0.0 0.00 0.00 0.00 91 1011.0
20260502114506 10 176 0.0 0.0 0.00 0.00 0.00 92 1011.1
20260502114003 10 176 0.0 0.0 0.00 0.00 0.00 93 1011.1
20260502113501 10 176 0.0 0.0 0.00 0.00 0.00 93 1011.1
20260502112959 10 176 0.0 0.0 0.00 0.00 0.00 94 1010.9
20260502112456 10 176 0.0 0.0 0.00 0.00 0.00 94 1011.0
20260502111954 10 176 0.0 0.0 0.00 0.00 0.00 94 1010.9
20260502111451 10 176 0.0 0.0 0.00 0.00 0.00 93 1011.0
20260502110948 10 176 0.0 0.0 0.00 0.00 0.00 93 1010.9
20260502110446 10 176 0.0 0.0 0.00 0.00 0.00 94 1011.0
20260502105943 10 176 0.0 0.0 0.00 0.00 0.00 94 1011.2
20260502105440 10 176 0.0 0.0 0.00 0.00 0.00 95 1011.0
20260502104938 10 176 0.0 0.0 0.00 0.00 0.00 95 1011.0
20260502104435 10 176 0.0 0.0 0.00 0.00 0.00 96 1010.7
20260502103932 10 176 0.0 0.0 0.00 0.00 0.00 96 1011.2
20260502103430 10 176 0.0 0.0 0.00 0.00 0.00 96 1011.0
20260502102927 10 176 0.0 0.0 0.00 0.00 0.00 96 1011.1
20260502102423 10 176 0.0 0.0 0.00 0.00 0.00 96 1011.0
20260502101921 10 176 0.0 0.0 0.00 0.00 0.00 96 1011.2
20260502101419 10 176 0.0 0.0 0.00 0.00 0.00 96 1011.3
20260502100917 10 176 0.0 0.0 0.00 0.00 0.00 96 1011.3
20260502100416 10 176 0.0 0.0 0.00 0.00 0.00 96 1011.4
20260502091349 10 176 0.0 0.0 0.00 0.00 0.00 96 1011.6
20260502090847 10 176 0.0 0.0 0.00 0.00 0.00 96 1011.5
20260502090344 10 176 0.0 0.0 0.00 0.00 0.00 96 1011.3
20260502071239 10 176 1.6 3.2 0.00 0.00 0.00 96 1010.4
20260502070737 10 176 0.0 0.0 0.00 0.00 0.00 96 1010.4
20260502070234 10 176 0.0 0.0 0.00 0.00 0.00 96 1010.4
20260502065733 10 176 0.0 0.0 0.00 0.00 0.00 96 1010.0
20260502065230 10 176 1.6 1.6 0.00 0.00 0.00 95 1010.2
20260502064729 10 176 0.0 0.0 0.00 0.00 0.00 95 1010.3
20260502064226 10 176 0.0 0.0 0.00 0.00 0.00 96 1010.2
20260502063723 10 176 0.0 0.0 0.00 0.00 0.00 96 1010.2
20260502063221 10 176 0.0 0.0 0.00 0.00 0.00 96 1010.4
20260502062718 10 176 0.0 0.0 0.00 0.00 0.00 96 1010.5
20260502062216 10 176 0.0 0.0 0.00 0.00 0.00 96 1010.5
20260502061714 10 176 0.0 0.0 0.00 0.00 0.00 95 1010.2
20260502061211 10 176 0.0 0.0 0.00 0.00 0.00 95 1010.3
20260502060706 10 176 0.0 0.0 0.00 0.00 0.00 95 1010.5
20260502060203 10 176 0.0 0.0 0.00 0.00 0.00 95 1010.4
20260502055701 10 176 0.0 0.0 0.00 0.00 0.00 95 1010.4
20260502055158 10 176 0.0 0.0 0.00 0.00 0.00 95 1010.4
20260502054658 10 176 0.0 0.0 0.00 0.00 0.00 95 1010.5
20260502054154 10 176 0.0 0.0 0.00 0.00 0.00 95 1010.4
20260502053652 10 176 0.0 0.0 0.00 0.00 0.00 95 1010.7
20260502053148 10 176 0.0 0.0 0.00 0.00 0.00 95 1010.7
20260502052647 10 176 0.0 0.0 0.00 0.00 0.00 95 1010.9
20260502052144 9 176 0.0 0.0 0.00 0.00 0.00 95 1010.8
20260502051643 9 176 0.0 0.0 0.00 0.00 0.00 95 1010.7
20260502051140 9 176 0.0 0.0 0.00 0.00 0.00 95 1010.8
20260502050636 9 176 0.0 0.0 0.00 0.00 0.00 95 1010.8
20260502050133 10 176 0.0 0.0 0.00 0.00 0.00 94 1010.9
20260502045630 10 176 0.0 0.0 0.00 0.00 0.00 94 1010.9
20260502045127 10 176 0.0 0.0 0.00 0.00 0.00 94 1011.0
20260502044623 10 176 0.0 0.0 0.00 0.00 0.00 94 1011.0
20260502044120 10 176 0.0 0.0 0.00 0.00 0.00 94 1011.2
20260502043619 10 176 0.0 0.0 0.00 0.00 0.00 94 1011.2
20260502043115 10 176 0.0 0.0 0.00 0.00 0.00 94 1011.1
20260502042614 10 176 0.0 0.0 0.00 0.00 0.00 94 1011.0
20260502042112 10 176 0.0 0.0 0.00 0.00 0.00 94 1011.0
20260502041610 10 176 0.0 0.0 0.00 0.00 0.00 94 1011.1
20260502041107 10 176 0.0 0.0 0.00 0.00 0.00 94 1011.0
20260502040603 10 176 0.0 0.0 0.00 0.00 0.00 94 1011.1
20260502040101 10 176 0.0 0.0 0.00 0.00 0.00 94 1011.2
20260502035556 10 176 0.0 0.0 0.00 0.00 0.00 93 1011.2
20260502035054 10 176 0.0 0.0 0.00 0.00 0.00 93 1011.2
20260502034552 10 176 0.0 0.0 0.00 0.00 0.00 93 1011.3
20260502034050 10 176 0.0 0.0 0.00 0.00 0.00 93 1011.5
20260502033548 10 176 0.0 0.0 0.00 0.00 0.00 93 1011.4
20260502033045 10 176 0.0 0.0 0.00 0.00 0.00 93 1011.4
20260502032541 10 176 0.0 0.0 0.00 0.00 0.00 93 1011.4
20260502032037 10 176 0.0 0.0 0.00 0.00 0.00 93 1011.4
20260502031536 10 176 0.0 0.0 0.00 0.00 0.00 93 1011.2
20260502031033 10 176 0.0 0.0 0.00 0.00 0.00 93 1011.3
20260502030532 10 176 0.0 0.0 0.00 0.00 0.00 92 1011.5
20260502030029 10 176 0.0 0.0 0.00 0.00 0.00 92 1011.3
20260502025526 10 176 0.0 0.0 0.00 0.00 0.00 92 1011.5
20260502025025 10 176 0.0 0.0 0.00 0.00 0.00 92 1011.6
20260502024521 10 176 0.0 0.0 0.00 0.00 0.00 92 1011.4
20260502024020 10 176 0.0 0.0 0.00 0.00 0.00 91 1011.5
20260502023517 10 176 0.0 0.0 0.00 0.00 0.00 91 1011.5
20260502023014 10 176 0.0 0.0 0.00 0.00 0.00 90 1011.4
20260502022511 10 176 0.0 0.0 0.00 0.00 0.00 90 1011.4
20260502022008 10 176 0.0 0.0 0.00 0.00 0.00 90 1011.5
20260502021505 10 176 0.0 0.0 0.00 0.00 0.00 89 1011.5
20260502021002 11 176 0.0 0.0 0.00 0.00 0.00 88 1011.4
20260502020500 11 176 0.0 0.0 0.00 0.00 0.00 88 1011.7
20260502015956 11 176 0.0 0.0 0.00 0.00 0.00 87 1011.5
20260502015455 11 176 0.0 0.0 0.00 0.00 0.00 87 1011.5
20260502014950 11 176 0.0 0.0 0.00 0.00 0.00 86 1011.6
20260502014448 11 176 0.0 0.0 0.00 0.00 0.00 86 1011.6
20260502013944 11 176 0.0 0.0 0.00 0.00 0.00 85 1011.6
20260502013440 11 176 0.0 0.0 0.00 0.00 0.00 86 1011.4
20260502012936 11 176 0.0 0.0 0.00 0.00 0.00 86 1011.3
20260502012434 11 176 0.0 0.0 0.00 0.00 0.00 86 1011.4
20260502011932 11 176 0.0 0.0 0.00 0.00 0.00 86 1011.3
20260502011427 11 176 0.0 0.0 0.00 0.00 0.00 87 1011.3
20260502010925 11 176 0.0 0.0 0.00 0.00 0.00 86 1011.2
20260502010421 11 176 0.0 0.0 0.00 0.00 0.00 86 1011.3